FIN3382 EFHK-ESSA

Flight info

Callsign FIN3382
Flight time 0h 47m
Altitude 34000
Route ADIVO Y365 POGOK DCT RUNGA N872 XILAN
Aircraft A321/M-SDE3FGHIRWY/LB1

Departure

Time 2026-05-06 12:00
Airport Helsinki Vantaa Airport (EFHK)

Arrival

Time 2026-05-06 12:47
Airport Stockholm-Arlanda Airport (ESSA)
Time Latitude Longitude Altitude Speed Heading
2026-05-06 11:29 60.31981 24.96475 167 ft 0 kts 137°
2026-05-06 11:52 60.31980 24.96477 167 ft 1 kts 137°
2026-05-06 11:53 60.31971 24.96494 167 ft 3 kts 137°
2026-05-06 11:53 60.31953 24.96503 167 ft 3 kts 186°
2026-05-06 11:53 60.31929 24.96478 167 ft 5 kts 211°
2026-05-06 11:53 60.31900 24.96417 167 ft 8 kts 229°
2026-05-06 11:54 60.31865 24.96330 167 ft 8 kts 238°
2026-05-06 11:54 60.31860 24.96207 167 ft 10 kts 274°
2026-05-06 11:54 60.31898 24.96083 167 ft 11 kts 316°
2026-05-06 11:54 60.31958 24.95973 171 ft 10 kts 317°
2026-05-06 11:55 60.32009 24.95877 173 ft 11 kts 317°
2026-05-06 11:55 60.32067 24.95769 174 ft 14 kts 317°
2026-05-06 11:55 60.32163 24.95588 173 ft 23 kts 316°
2026-05-06 11:55 60.32273 24.95387 176 ft 18 kts 318°
2026-05-06 11:56 60.32371 24.95255 177 ft 16 kts 339°
2026-05-06 11:56 60.32472 24.95187 179 ft 14 kts 342°
2026-05-06 11:56 60.32563 24.95127 180 ft 13 kts 342°
2026-05-06 11:56 60.32650 24.95070 180 ft 13 kts 342°
2026-05-06 11:57 60.32740 24.95011 178 ft 14 kts 342°
2026-05-06 11:57 60.32841 24.94945 175 ft 16 kts 341°
2026-05-06 11:57 60.32935 24.94839 177 ft 14 kts 316°
2026-05-06 11:57 60.33001 24.94711 180 ft 12 kts 316°
2026-05-06 11:58 60.33041 24.94611 183 ft 7 kts 292°
2026-05-06 11:58 60.33048 24.94545 190 ft 3 kts 275°
2026-05-06 11:58 60.33049 24.94500 186 ft 7 kts 274°
2026-05-06 11:58 60.33053 24.94334 189 ft 18 kts 269°
2026-05-06 11:59 60.33030 24.94199 191 ft 0 kts 226°
2026-05-06 11:59 60.32984 24.94101 190 ft 36 kts 227°
2026-05-06 12:00 60.32640 24.93337 181 ft 106 kts 227°
2026-05-06 12:00 60.32015 24.91976 215 ft 151 kts 228°
2026-05-06 12:00 60.31312 24.90495 958 ft 144 kts 228°
2026-05-06 12:00 60.30638 24.88960 1628 ft 149 kts 230°
2026-05-06 12:01 60.29930 24.87261 2034 ft 171 kts 232°
2026-05-06 12:01 60.29158 24.85439 2752 ft 170 kts 232°
2026-05-06 12:01 60.28569 24.83284 3147 ft 190 kts 266°
2026-05-06 12:01 60.28950 24.80605 3382 ft 217 kts 306°
2026-05-06 12:02 60.29968 24.78143 3863 ft 240 kts 309°
2026-05-06 12:02 60.31029 24.75454 4606 ft 250 kts 300°
2026-05-06 12:02 60.31544 24.71955 5009 ft 275 kts 271°
2026-05-06 12:02 60.31458 24.68194 6353 ft 261 kts 269°
2026-05-06 12:03 60.31399 24.64564 7441 ft 260 kts 269°
2026-05-06 12:03 60.31367 24.60877 8365 ft 263 kts 270°
2026-05-06 12:03 60.31340 24.57172 9271 ft 267 kts 269°
2026-05-06 12:03 60.31277 24.53435 9926 ft 272 kts 268°
2026-05-06 12:04 60.31182 24.49545 10417 ft 288 kts 268°
2026-05-06 12:04 60.31069 24.45347 10649 ft 311 kts 267°
2026-05-06 12:04 60.30945 24.40843 10979 ft 327 kts 267°
2026-05-06 12:04 60.30820 24.36234 11738 ft 330 kts 267°
2026-05-06 12:05 60.30692 24.31620 12641 ft 328 kts 268°
2026-05-06 12:05 60.30563 24.27044 13525 ft 326 kts 268°
2026-05-06 12:05 60.30437 24.22498 14268 ft 325 kts 267°
2026-05-06 12:05 60.30313 24.17941 14958 ft 325 kts 267°
2026-05-06 12:06 60.30188 24.13376 15630 ft 327 kts 267°
2026-05-06 12:06 60.30059 24.08843 16251 ft 329 kts 266°
2026-05-06 12:06 60.29925 24.04216 16884 ft 330 kts 266°
2026-05-06 12:06 60.29788 23.99575 17510 ft 332 kts 265°
2026-05-06 12:07 60.29420 23.94975 18081 ft 333 kts 258°
2026-05-06 12:07 60.28925 23.90388 18603 ft 335 kts 258°
2026-05-06 12:07 60.28427 23.85796 19092 ft 335 kts 258°
2026-05-06 12:07 60.27933 23.81253 19569 ft 337 kts 258°
2026-05-06 12:08 60.27425 23.76583 20066 ft 337 kts 258°
2026-05-06 12:08 60.26927 23.72018 20567 ft 338 kts 258°
2026-05-06 12:08 60.26418 23.67381 21067 ft 339 kts 258°
2026-05-06 12:08 60.25907 23.62737 21567 ft 341 kts 257°
2026-05-06 12:09 60.25391 23.58064 22072 ft 342 kts 257°
2026-05-06 12:09 60.24870 23.53382 22578 ft 343 kts 257°
2026-05-06 12:09 60.24345 23.48676 23097 ft 344 kts 257°
2026-05-06 12:09 60.23818 23.43964 23599 ft 346 kts 257°
2026-05-06 12:10 60.23292 23.39283 24011 ft 347 kts 257°
2026-05-06 12:10 60.22759 23.34548 24428 ft 347 kts 257°
2026-05-06 12:10 60.22224 23.29792 24883 ft 348 kts 257°
2026-05-06 12:10 60.21688 23.25022 25301 ft 349 kts 257°
2026-05-06 12:11 60.21151 23.20264 25719 ft 350 kts 256°
2026-05-06 12:11 60.20609 23.15492 26118 ft 350 kts 256°
2026-05-06 12:11 60.20063 23.10713 26460 ft 352 kts 256°
2026-05-06 12:11 60.19513 23.05904 26787 ft 354 kts 256°
2026-05-06 12:12 60.18956 23.01061 27154 ft 356 kts 255°
2026-05-06 12:12 60.18393 22.96202 27542 ft 357 kts 255°
2026-05-06 12:12 60.17829 22.91341 27906 ft 358 kts 255°
2026-05-06 12:12 60.17261 22.86467 28257 ft 359 kts 255°
2026-05-06 12:13 60.16690 22.81578 28576 ft 360 kts 255°
2026-05-06 12:13 60.16122 22.76742 28880 ft 361 kts 255°
2026-05-06 12:13 60.15542 22.71835 29161 ft 361 kts 255°
2026-05-06 12:13 60.14958 22.66906 29424 ft 362 kts 255°
2026-05-06 12:14 60.14376 22.61999 29774 ft 361 kts 255°
2026-05-06 12:14 60.13796 22.57115 30133 ft 359 kts 255°
2026-05-06 12:14 60.13218 22.52254 30477 ft 357 kts 254°
2026-05-06 12:14 60.12639 22.47419 30780 ft 356 kts 254°
2026-05-06 12:15 60.12066 22.42645 31102 ft 355 kts 254°
2026-05-06 12:15 60.11488 22.37837 31397 ft 354 kts 255°
2026-05-06 12:15 60.10909 22.33031 31689 ft 354 kts 255°
2026-05-06 12:15 60.10327 22.28230 31957 ft 354 kts 255°
2026-05-06 12:16 60.09159 22.18643 32051 ft 353 kts 254°
2026-05-06 12:16 60.07984 22.09081 32051 ft 353 kts 254°
2026-05-06 12:17 60.06806 21.99556 32047 ft 356 kts 254°
2026-05-06 12:17 60.05609 21.89928 32051 ft 357 kts 254°
2026-05-06 12:18 60.04404 21.80291 32052 ft 357 kts 253°
2026-05-06 12:18 60.03189 21.70680 32096 ft 356 kts 253°
2026-05-06 12:19 60.01971 21.61079 32050 ft 355 kts 253°
2026-05-06 12:19 60.00957 21.53104 32056 ft 356 kts 253°
2026-05-06 12:20 59.99521 21.41966 32054 ft 356 kts 253°
2026-05-06 12:20 59.98477 21.34014 32056 ft 356 kts 253°
2026-05-06 12:21 59.97153 21.24487 32047 ft 355 kts 252°
2026-05-06 12:21 59.95815 21.14990 32052 ft 355 kts 252°
2026-05-06 12:22 59.94479 21.05488 32058 ft 355 kts 252°
2026-05-06 12:22 59.93150 20.96062 32050 ft 355 kts 252°
2026-05-06 12:23 59.91807 20.86578 32057 ft 356 kts 252°
2026-05-06 12:23 59.90447 20.77057 32054 ft 356 kts 252°
2026-05-06 12:24 59.89089 20.67621 32052 ft 356 kts 252°
2026-05-06 12:24 59.87718 20.58141 32052 ft 356 kts 252°
2026-05-06 12:25 59.86341 20.48654 32052 ft 357 kts 252°
2026-05-06 12:25 59.84956 20.39171 32049 ft 356 kts 252°
2026-05-06 12:26 59.83568 20.29743 31695 ft 350 kts 251°
2026-05-06 12:26 59.82885 20.25100 30874 ft 350 kts 251°
2026-05-06 12:26 59.82211 20.20540 30551 ft 349 kts 251°
2026-05-06 12:27 59.81522 20.15890 30301 ft 352 kts 251°
2026-05-06 12:27 59.80831 20.11234 29606 ft 350 kts 251°
2026-05-06 12:27 59.80132 20.06563 28474 ft 355 kts 251°
2026-05-06 12:27 59.79419 20.01825 27118 ft 363 kts 251°
2026-05-06 12:28 59.78684 19.96955 25809 ft 372 kts 252°
2026-05-06 12:28 59.77932 19.91973 24667 ft 378 kts 252°
2026-05-06 12:28 59.77180 19.86992 23829 ft 376 kts 253°
2026-05-06 12:28 59.76439 19.82096 22897 ft 374 kts 253°
2026-05-06 12:29 59.75691 19.77170 21944 ft 371 kts 253°
2026-05-06 12:29 59.74947 19.72279 21031 ft 369 kts 253°
2026-05-06 12:29 59.74236 19.67421 20140 ft 367 kts 254°
2026-05-06 12:29 59.73563 19.62546 19300 ft 365 kts 255°
2026-05-06 12:30 59.72916 19.57712 18442 ft 363 kts 255°
2026-05-06 12:30 59.72268 19.52867 17473 ft 361 kts 256°
2026-05-06 12:30 59.71619 19.48071 16517 ft 359 kts 256°
2026-05-06 12:30 59.70968 19.43324 15610 ft 356 kts 256°
2026-05-06 12:31 59.70313 19.38591 14731 ft 354 kts 256°
2026-05-06 12:31 59.69658 19.33896 13908 ft 353 kts 256°
2026-05-06 12:31 59.69010 19.29279 13008 ft 352 kts 256°
2026-05-06 12:31 59.68351 19.24602 12154 ft 350 kts 256°
2026-05-06 12:32 59.67695 19.19970 11322 ft 349 kts 255°
2026-05-06 12:32 59.67038 19.15358 10514 ft 348 kts 255°
2026-05-06 12:32 59.66383 19.10763 9829 ft 344 kts 255°
2026-05-06 12:32 59.65756 19.06344 9682 ft 324 kts 255°
2026-05-06 12:33 59.65162 19.02166 9529 ft 307 kts 255°
2026-05-06 12:33 59.64608 18.98278 9392 ft 290 kts 255°
2026-05-06 12:33 59.64069 18.94523 9251 ft 276 kts 255°
2026-05-06 12:33 59.63553 18.90949 8989 ft 267 kts 255°
2026-05-06 12:34 59.63047 18.87435 8567 ft 265 kts 255°
2026-05-06 12:34 59.62542 18.83949 8116 ft 263 kts 255°
2026-05-06 12:34 59.62035 18.80483 8007 ft 263 kts 255°
2026-05-06 12:34 59.61527 18.76999 8017 ft 264 kts 255°
2026-05-06 12:35 59.61029 18.73566 8022 ft 265 kts 255°
2026-05-06 12:35 59.60523 18.70086 8021 ft 265 kts 255°
2026-05-06 12:35 59.60016 18.66594 8019 ft 265 kts 255°
2026-05-06 12:35 59.59506 18.63093 8021 ft 264 kts 255°
2026-05-06 12:36 59.59004 18.59651 8018 ft 264 kts 255°
2026-05-06 12:36 59.58493 18.56162 8021 ft 265 kts 255°
2026-05-06 12:36 59.57982 18.52670 8009 ft 265 kts 254°
2026-05-06 12:36 59.57468 18.49171 8007 ft 265 kts 254°
2026-05-06 12:37 59.56949 18.45677 8009 ft 266 kts 254°
2026-05-06 12:37 59.56432 18.42190 8007 ft 266 kts 254°
2026-05-06 12:37 59.55930 18.38799 7971 ft 265 kts 255°
2026-05-06 12:37 59.55414 18.35329 7534 ft 263 kts 254°
2026-05-06 12:38 59.55103 18.31802 7068 ft 261 kts 271°
2026-05-06 12:38 59.55472 18.28340 6634 ft 259 kts 293°
2026-05-06 12:38 59.56485 18.25421 6189 ft 261 kts 315°
2026-05-06 12:38 59.57999 18.23475 5746 ft 262 kts 338°
2026-05-06 12:39 59.59787 18.22825 5263 ft 264 kts 360°
2026-05-06 12:39 59.61526 18.23335 4795 ft 264 kts
2026-05-06 12:39 59.63336 18.24016 4347 ft 264 kts
2026-05-06 12:39 59.65136 18.24683 4017 ft 261 kts
2026-05-06 12:40 59.66929 18.25340 4012 ft 263 kts
2026-05-06 12:40 59.68740 18.26000 4010 ft 264 kts
2026-05-06 12:40 59.70542 18.26657 4005 ft 264 kts
2026-05-06 12:40 59.72251 18.27283 4000 ft 253 kts
2026-05-06 12:41 59.73932 18.27858 4002 ft 237 kts
2026-05-06 12:41 59.75524 18.27482 4011 ft 230 kts 338°
2026-05-06 12:41 59.76872 18.25843 3859 ft 226 kts 313°
2026-05-06 12:41 59.77715 18.23263 3543 ft 223 kts 287°
2026-05-06 12:42 59.78068 18.20273 3242 ft 223 kts 281°
2026-05-06 12:42 59.78389 18.17254 2890 ft 223 kts 282°
2026-05-06 12:42 59.78717 18.14257 2590 ft 221 kts 281°
2026-05-06 12:42 59.79032 18.11379 2487 ft 215 kts 281°
2026-05-06 12:43 59.79292 18.08660 2498 ft 196 kts 274°
2026-05-06 12:43 59.79194 18.06104 2507 ft 183 kts 256°
2026-05-06 12:43 59.78736 18.03821 2496 ft 180 kts 239°
2026-05-06 12:43 59.77951 18.01889 2499 ft 180 kts 224°
2026-05-06 12:44 59.76922 18.00523 2493 ft 177 kts 206°
2026-05-06 12:44 59.75731 17.99823 2378 ft 181 kts 192°
2026-05-06 12:44 59.74508 17.99383 2115 ft 176 kts 192°
2026-05-06 12:44 59.73367 17.98975 1877 ft 157 kts 192°
2026-05-06 12:45 59.72331 17.98599 1666 ft 145 kts 192°
2026-05-06 12:45 59.71373 17.98250 1458 ft 136 kts 192°
2026-05-06 12:45 59.69525 17.97577 1091 ft 134 kts 191°
2026-05-06 12:46 59.68607 17.97248 895 ft 133 kts 191°
2026-05-06 12:46 59.67706 17.96906 757 ft 133 kts 191°
2026-05-06 12:46 59.66793 17.96575 561 ft 132 kts 189°
2026-05-06 12:46 59.65897 17.96271 389 ft 129 kts 192°
2026-05-06 12:47 59.65006 17.95935 183 ft 131 kts 192°
2026-05-06 12:47 59.64157 17.95612 115 ft 116 kts 192°
2026-05-06 12:47 59.63523 17.95399 118 ft 65 kts 191°
2026-05-06 12:47 59.63247 17.95293 127 ft 19 kts 189°
2026-05-06 12:48 59.63181 17.95272 125 ft 7 kts 189°
2026-05-06 12:48 59.63143 17.95257 129 ft 4 kts 202°
2026-05-06 12:48 59.63120 17.95239 131 ft 3 kts 200°
2026-05-06 12:48 59.63106 17.95230 132 ft 2 kts 198°
2026-05-06 12:49 59.63087 17.95218 133 ft 8 kts 198°
2026-05-06 12:49 59.62993 17.95118 136 ft 20 kts 216°
2026-05-06 12:49 59.62914 17.95001 136 ft 1 kts 219°
2026-05-06 12:49 59.62883 17.94951 137 ft 11 kts 219°
2026-05-06 12:50 59.62855 17.94810 137 ft 13 kts 287°
2026-05-06 12:50 59.62907 17.94766 137 ft 10 kts
2026-05-06 12:50 59.62987 17.94793 134 ft 14 kts 10°
2026-05-06 12:50 59.63090 17.94831 128 ft 16 kts 10°
2026-05-06 12:51 59.63206 17.94873 127 ft 18 kts 10°
2026-05-06 12:51 59.63327 17.94917 119 ft 15 kts 11°
2026-05-06 12:51 59.63437 17.94958 120 ft 17 kts 11°
2026-05-06 12:51 59.63562 17.95005 116 ft 19 kts 11°
2026-05-06 12:52 59.63670 17.95044 113 ft 8 kts 10°
2026-05-06 12:52 59.63731 17.95066 111 ft 9 kts 10°
2026-05-06 12:52 59.63797 17.95089 111 ft 10 kts 10°
2026-05-06 12:52 59.63862 17.95113 110 ft 10 kts 10°
2026-05-06 12:53 59.63928 17.95136 109 ft 10 kts 10°
2026-05-06 12:53 59.63993 17.95160 109 ft 10 kts 10°
2026-05-06 12:53 59.64060 17.95183 108 ft 10 kts 10°
2026-05-06 12:53 59.64128 17.95207 106 ft 10 kts 10°
2026-05-06 12:54 59.64202 17.95236 107 ft 12 kts 11°
2026-05-06 12:54 59.64295 17.95271 106 ft 15 kts 11°
2026-05-06 12:54 59.64402 17.95311 106 ft 16 kts 11°
2026-05-06 12:54 59.64510 17.95349 105 ft 16 kts 10°
2026-05-06 12:55 59.64620 17.95388 105 ft 16 kts 10°
2026-05-06 12:55 59.64724 17.95424 106 ft 10 kts 10°
2026-05-06 12:55 59.64752 17.95434 106 ft 0 kts 10°
2026-05-06 12:57 59.64766 17.95439 106 ft 5 kts 11°
2026-05-06 12:57 59.64822 17.95461 107 ft 12 kts 11°
2026-05-06 12:58 59.64907 17.95493 109 ft 17 kts
2026-05-06 12:58 59.65007 17.95518 113 ft 14 kts
2026-05-06 12:58 59.65104 17.95482 116 ft 17 kts 346°
2026-05-06 12:58 59.65223 17.95418 121 ft 14 kts 345°
2026-05-06 12:59 59.65280 17.95388 124 ft 10 kts 345°
2026-05-06 12:59 59.65362 17.95347 125 ft 15 kts 346°
2026-05-06 12:59 59.65485 17.95284 127 ft 22 kts 345°
2026-05-06 12:59 59.65656 17.95195 127 ft 18 kts 345°
2026-05-06 13:00 59.65734 17.95116 126 ft 15 kts 312°
2026-05-06 13:00 59.65735 17.94896 125 ft 19 kts 255°
2026-05-06 13:00 59.65701 17.94662 123 ft 8 kts 254°
2026-05-06 13:00 59.65689 17.94557 121 ft 8 kts 257°
2026-05-06 13:01 59.65676 17.94455 124 ft 8 kts 257°
2026-05-06 13:01 59.65657 17.94295 124 ft 17 kts 257°
2026-05-06 13:01 59.65626 17.94040 119 ft 20 kts 256°
2026-05-06 13:01 59.65603 17.93873 114 ft 21 kts 258°
2026-05-06 13:02 59.65555 17.93488 112 ft 19 kts 257°
2026-05-06 13:02 59.65546 17.93416 112 ft 4 kts 252°
2026-05-06 13:02 59.65519 17.93362 112 ft 9 kts 208°
2026-05-06 13:02 59.65444 17.93345 112 ft 10 kts 172°
2026-05-06 13:03 59.65359 17.93393 111 ft 7 kts 162°
2026-05-06 13:03 59.65349 17.93439 112 ft 3 kts 95°
2026-05-06 13:03 59.65356 17.93523 112 ft 5 kts 76°
2026-05-06 13:03 59.65358 17.93537 112 ft 0 kts 77°